Location: ???? ?????????
(44.3677°N, 135.2344°E)
Time: 14:53:09
(UTC+00:00)

Cosmos 2082 Rocket - Pass Details

Date: 19 May 2025
Orbit: 831 x 853 km, 71.0° (Epoch: 20 June)

Event Time Altitude Azimuth Distance (km) Brightness Sun altitude
Exits shadow 13:12:59 43° 180° (S) 1,155 2.5 -21.6°
Maximum altitude 13:14:47 70° 112° (ESE) 887 2.1 -21.7°
Drops below altitude 10° 13:20:22 10° 30° (NNE) 2,453 5.1 -22.1°
Sets 13:22:50 0° 28° (NNE) 3,394 5.9 -22.3°
